EHI
0 0 0 0 0 0 0 0 0 0 0 0 0 0 0 0 0 0 0 0 1 2 2 1 0 0 0 0 0 0 0 0 0 0 0 0 0 0 0 0 1 2 3 3
0 0 0 0 0 0 0 0 0 0 0 0 0 0 0 0 0 0 0 0 0 1 1 1 0 0 0 0 0 0 0 0 0 0 0 0 0 0 0 0 0 1 2 3
0 0 0 0 0 0 0 0 0 0 0 0 0 0 0 0 0 0 0 0 0 0 0 0 0 0 0 0 0 0 0 0 0 0 0 0 0 0 0 0 0 0 1 2
0 0 0 0 0 0 0 0 0 0 0 0 0 0 0 0 0 0 0 0 0 0 0 0 0 0 0 0 0 0 0 0 0 0 0 0 0 0 0 0 0 0 1 2
0 0 0 0 0 0 0 0 0 0 0 0 0 0 0 0 0 0 0 0 0 0 0 0 0 0 0 0 0 0 0 0 0 0 0 0 0 0 0 0 0 0 0 1
0 0 0 0 0 0 0 0 0 0 0 0 0 0 0 0 0 0 0 0 0 0 0 0 0 0 0 0 0 0 0 0 0 0 0 0 0 0 0 0 0 0 0 0
0 0 0 0 0 0 0 0 0 0 0 0 0 0 0 0 0 0 0 0 0 0 0 0 0 0 0 0 0 0 0 0 0 0 0 0 0 0 0 0 0 0 0 0
0 0 0 0 0 0 0 0 0 0 0 0 0 0 0 0 0 0 0 0 0 0 0 0 0 0 0 0 0 0 0 0 0 0 0 0 0 0 0 0 0 0 0 0
0 0 0 0 0 0 0 0 0 0 0 0 0 0 0 0 0 0 0 0 0 0 0 0 0 0 0 0 0 0 0 0 0 0 0 0 0 0 0 0 0 0 0 0
0 0 0 0 0 0 0 0 0 0 0 0 0 0 0 0 0 0 0 0 0 0 0 0 0 0 0 0 0 0 0 0 0 0 0 0 0 0 0 0 0 0 0 0
0 0 0 0 0 0 0 0 0 0 0 0 0 0 0 0 0 0 0 0 0 0 0 0 0 0 0 0 0 0 0 0 0 0 0 0 0 0 0 0 0 0 0 0
0 0 0 0 0 0 0 0 0 0 0 0 0 0 0 0 0 0 0 0 0 0 0 0 0 0 0 0 0 0 0 0 0 0 0 0 0 0 0 0 0 0 0 0
0 0 0 0 0 0 0 0 0 0 0 0 0 0 0 0 0 0 0 0 0 0 0 0 0 0 0 0 0 0 0 0 0 0 0 0 0 0 0 0 0 0 0 0
0 0 0 0 0 0 0 0 0 0 0 0 0 0 0 0 0 0 0 0 0 0 0 0 0 0 0 0 0 0 0 0 0 0 0 0 0 0 0 0 0 0 0 0
0 0 0 0 0 0 0 0 0 0 0 0 0 0 0 0 0 0 0 0 0 0 0 0 0 0 0 0 0 0 0 0 0 0 0 0 0 0 0 0 0 0 0 0
0 0 0 0 0 0 0 0 0 0 0 0 0 0 0 0 0 0 0 0 0 0 0 0 0 0 0 0 0 0 0 0 0 0 0 0 0 0 0 0 0 0 0 0
0 0 0 0 0 0 0 0 0 0 0 0 0 0 0 0 0 0 0 0 0 0 0 0 0 0 0 0 0 0 0 0 0 0 0 0 0 0 0 0 0 0 0 0
0 0 0 0 0 0 0 0 0 0 0 0 0 0 0 0 0 0 0 0 0 0 0 0 0 0 0 0 0 0 0 0 0 0 0 0 0 0 0 0 0 0 0 0
0 0 0 0 0 0 0 0 0 0 0 0 0 0 0 0 0 0 0 0 0 0 0 0 0 0 0 0 0 0 0 0 0 0 0 0 0 0 0 0 0 0 0 0
0 0 0 0 0 0 0 0 0 0 0 0 0 0 0 0 0 0 0 0 0 0 0 0 0 0 0 0 0 0 0 0 0 0 0 0 0 0 0 0 0 0 0 0
0 0 0 0 0 0 0 0 0 0 0 0 0 0 0 0 0 0 0 0 0 0 0 0 0 0 0 0 0 0 0 0 0 0 0 0 0 0 0 0 0 0 0 0
0 0 0 0 0 0 0 0 0 0 0 0 0 0 0 0 0 0 0 0 0 0 0 0 0 0 0 0 0 0 0 0 0 0 0 0 0 0 0 0 0 0 0 0
0 0 0 0 0 0 0 0 0 0 0 0 0 0 0 0 0 0 0 0 0 0 0 0 0 0 0 0 0 0 0 0 0 0 0 0 0 0 0 0 0 0 0 0
0 0 0 0 0 0 0 0 0 0 0 0 0 0 0 0 0 0 0 0 0 0 0 0 0 0 0 0 0 0 0 0 0 0 0 0 0 0 0 0 0 0 0 0
0 0 0 0 0 0 0 0 0 0 0 0 0 0 0 0 0 0 0 0 0 0 0 0 0 0 0 0 0 0 0 0 0 0 0 0 0 0 0 0 0 0 0 0
0 0 0 0 0 0 0 0 0 0 0 0 0 0 0 0 0 0 0 0 0 0 0 0 0 0 0 0 0 0 0 0 0 0 0 0 0 0 0 0 0 0 0 0
Wind_Speed
2 2 2 3 5 5 5 6 7 6 4 5 7 10 9 6 6 6 5 4 4 3 2 2 2 2 1 1 2 2 2 2 1 2 2 2 2 1 1 1 1 1 1 2
2 3 4 5 5 5 6 7 7 5 3 4 7 11 9 6 8 7 6 5 4 3 2 2 2 2 1 1 2 2 2 2 2 2 2 2 2 2 1 1 1 1 1 1
3 2 2 3 4 5 6 6 5 6 7 6 7 9 7 5 6 6 4 3 4 4 3 2 2 1 1 1 2 2 2 2 2 3 2 2 1 1 1 1 1 1 1 2
2 2 3 3 4 4 5 4 5 6 5 4 3 6 4 4 4 4 3 3 4 3 3 2 2 2 2 2 1 2 2 2 2 2 3 4 3 3 3 2 2 2 1 1
1 1 2 2 3 4 3 5 5 6 5 5 5 5 6 3 4 4 3 3 3 2 2 2 2 2 2 2 2 2 2 2 2 2 3 4 3 3 3 2 3 2 2 2
3 1 1 2 2 3 4 4 4 3 2 5 6 5 5 2 3 2 2 2 2 2 1 1 1 1 1 1 2 2 3 2 2 2 4 4 5 4 4 4 3 2 2 2
2 2 1 1 2 1 2 2 2 1 2 5 2 3 5 2 2 2 2 1 0 1 1 0 1 1 1 1 2 3 2 2 2 2 3 4 5 5 6 5 4 3 2 2
2 2 1 0 1 1 2 1 1 2 3 3 2 4 3 1 4 4 4 3 3 2 2 1 0 1 1 2 2 2 3 2 2 3 3 3 4 3 3 4 4 4 3 3
2 2 1 2 2 2 2 1 1 1 3 3 5 4 2 3 5 5 4 5 4 3 3 2 2 1 1 2 2 2 2 2 3 3 3 2 3 3 3 3 3 3 2 2
2 3 2 0 1 2 2 2 1 1 2 4 5 3 3 2 3 4 5 5 5 4 3 3 3 2 1 1 1 1 2 2 2 2 2 2 3 3 3 3 3 3 3 2
2 2 2 1 2 2 1 1 2 2 2 3 4 3 2 2 3 4 4 5 5 4 3 3 2 2 1 1 1 1 2 2 1 1 2 2 2 2 2 2 2 2 3 3
2 1 3 3 1 2 1 2 2 2 3 3 3 5 2 3 3 5 5 6 6 5 4 3 2 2 2 2 1 1 1 2 2 1 1 2 1 2 1 1 2 2 2 2
1 1 2 3 1 1 2 2 2 2 2 3 5 6 1 4 5 5 5 6 5 5 4 4 3 3 3 2 2 2 2 2 1 0 1 2 1 1 1 1 1 1 2 2
1 1 3 5 3 2 3 4 2 2 3 5 7 8 7 7 6 6 6 6 5 5 4 4 4 3 2 2 2 2 2 2 1 1 1 2 1 1 1 1 1 1 1 2
0 3 4 7 8 6 6 7 5 6 6 7 8 8 9 7 7 7 6 6 5 5 5 5 5 4 3 3 3 2 2 2 2 2 2 1 1 1 1 2 2 1 1 1
0 2 3 6 6 6 8 9 8 8 8 10 11 12 8 7 6 6 5 5 6 6 6 6 5 4 4 3 3 2 2 2 2 2 2 2 2 2 2 2 1 1 1 1
1 1 2 5 3 5 8 7 8 7 6 6 9 9 7 6 6 6 5 5 5 6 6 5 4 3 3 2 2 2 2 2 2 2 2 2 2 2 2 2 2 1 1 1
3 2 2 4 4 6 6 1 3 6 7 7 7 7 6 6 6 4 3 4 5 5 5 5 4 4 3 3 2 2 2 2 2 2 2 2 2 2 1 1 1 1 1 0
3 3 2 2 4 8 4 2 1 3 6 4 5 7 6 6 4 3 4 4 4 4 4 4 4 4 3 3 2 2 2 2 2 2 2 1 2 2 1 1 1 1 1 0
0 2 2 3 4 6 3 1 1 1 5 3 2 4 5 4 3 4 4 5 5 5 4 3 3 3 3 3 2 2 2 2 1 1 1 1 1 1 1 0 1 1 1 1
1 2 4 5 6 7 2 0 1 1 5 4 3 4 3 2 4 4 4 4 4 4 4 4 4 3 3 3 2 2 2 1 1 1 1 1 1 1 0 0 0 1 1 1
5 4 4 4 5 8 1 3 3 4 3 3 4 4 4 4 3 3 3 3 3 4 4 4 4 3 3 3 2 2 2 2 1 1 1 1 1 1 1 1 1 1 1 1
6 6 4 7 7 3 3 3 3 2 3 4 4 5 4 4 3 3 2 2 3 3 3 3 3 4 4 3 3 2 2 2 1 2 1 1 1 1 1 1 1 1 1 1
3 2 3 5 6 4 4 3 3 4 4 5 4 4 3 3 3 3 2 2 2 3 3 3 3 3 4 4 4 3 3 2 1 1 1 1 1 1 1 1 1 0 1 1
3 2 3 6 6 5 4 4 5 5 4 4 4 3 3 3 3 2 2 2 2 2 2 2 2 3 4 4 4 4 3 2 2 1 1 1 1 1 1 1 1 1 1 1
4 4 4 6 4 3 5 4 4 4 5 5 4 4 3 2 2 2 2 2 2 2 3 3 3 3 4 4 4 4 3 2 1 1 1 1 1 1 1 1 1 2 2 2
Wind_Direction
203 229 230 242 244 260 285 284 283 286 293 287 268 272 271 263 254 253 251 247 248 243 226 189 210 230 199 185 174 176 163 169 164 164 166 167 173 163 154 165 155 160 157 149
220 239 266 283 284 275 265 271 281 288 290 287 279 277 271 251 246 245 246 245 244 252 242 232 217 217 224 219 201 199 189 186 187 187 175 180 176 173 172 168 149 163 156 139
236 260 289 284 285 282 277 268 278 294 309 273 282 281 245 233 231 240 244 249 249 244 243 233 246 245 236 231 223 224 196 201 195 187 156 150 159 160 166 182 188 196 187 176
274 281 285 288 287 287 286 309 300 294 298 280 251 288 258 226 230 237 250 252 248 255 249 225 229 250 241 224 210 227 217 200 191 188 172 172 181 185 195 195 196 182 180 188
293 347 312 289 299 298 287 311 295 283 273 281 252 250 275 217 239 245 249 244 241 244 248 236 231 239 236 206 199 213 231 225 187 195 194 184 196 197 181 178 191 188 180 187
258 278 305 303 313 298 306 299 278 262 254 265 238 219 272 249 249 269 273 248 223 221 239 261 291 295 264 214 202 211 213 226 196 190 206 195 197 196 184 186 192 193 185 184
258 216 205 251 290 271 301 347 343 311 237 248 230 225 251 283 0 8 331 342 47 70 28 306 323 331 302 258 221 210 211 217 204 201 209 209 202 199 195 190 189 192 197 196
301 275 168 189 279 278 265 238 195 264 271 300 302 247 254 40 33 27 27 30 23 19 21 353 311 291 287 275 240 213 217 219 212 216 217 212 204 194 200 195 191 198 201 197
322 292 3 353 338 313 288 242 260 278 280 272 255 251 259 6 10 11 7 9 359 356 3 360 351 324 291 268 258 230 229 219 219 223 219 219 208 198 204 195 187 196 191 186
316 288 274 262 310 283 276 312 323 227 277 276 268 255 288 336 338 347 351 348 345 354 357 355 345 334 293 270 268 236 242 231 226 217 220 228 207 199 199 193 188 184 175 172
312 276 280 227 216 239 214 237 239 252 256 266 286 281 24 15 7 355 342 338 339 348 347 344 340 344 323 320 334 288 278 273 244 217 218 204 202 185 192 191 180 177 169 169
332 290 271 250 252 339 293 272 206 225 263 251 266 273 24 36 27 9 357 347 346 352 354 355 356 358 349 337 310 306 290 290 274 221 197 185 177 164 183 183 182 171 169 169
342 282 306 305 299 349 303 306 299 284 287 259 253 266 357 16 1 355 346 339 340 346 351 350 346 346 344 354 1 348 326 314 309 158 152 144 156 160 175 177 183 162 153 149
348 232 222 248 276 292 276 281 265 222 230 256 246 270 301 327 334 333 331 326 329 336 340 346 345 341 347 4 13 5 352 1 28 48 104 114 130 150 144 131 112 107 141 146
309 251 255 269 277 273 264 266 249 230 233 243 269 282 290 303 314 319 321 326 331 335 342 348 344 349 10 18 13 7 12 9 20 41 51 71 84 93 85 83 76 68 84 105
333 263 285 276 263 263 269 262 249 247 247 253 271 279 283 298 309 315 323 332 334 337 341 345 348 359 4 6 357 4 8 12 30 47 42 50 71 81 77 81 80 67 65 71
194 230 277 279 303 303 269 246 226 232 230 234 249 261 293 308 314 315 323 336 331 334 339 337 339 346 343 344 358 356 359 34 51 45 43 46 59 72 70 66 66 45 56 66
190 220 250 289 321 258 249 214 211 236 251 242 259 285 302 299 304 312 333 327 326 333 337 340 351 354 359 4 6 12 28 56 66 56 39 33 44 59 63 64 63 18 41 82
210 198 239 259 272 273 270 260 217 236 275 250 259 285 302 320 318 312 348 354 343 342 346 348 359 1 5 12 15 29 34 53 64 56 37 23 37 39 52 45 17 353 334 329
296 180 220 235 255 259 264 358 11 80 287 303 290 293 312 343 317 295 345 350 352 357 358 358 360 2 2 359 15 38 33 42 47 34 16 22 31 41 41 8 331 324 321 318
177 206 219 233 249 265 275 134 91 170 271 328 334 310 304 269 255 283 323 340 349 350 352 358 4 360 352 355 16 29 23 8 340 10 37 27 25 30 10 32 357 354 341 348
186 193 208 208 230 258 170 134 190 240 302 322 317 311 300 296 305 320 332 339 349 353 356 1 5 357 357 4 20 22 360 337 17 59 56 28 4 356 10 37 359 6 345 336
205 201 198 202 222 254 185 211 243 293 300 304 303 302 298 301 306 317 325 332 342 347 348 359 4 359 0 4 11 10 339 349 40 64 52 18 4 2 12 13 330 340 329 312
231 211 241 262 265 267 254 258 281 290 286 294 293 289 292 291 294 304 313 321 334 340 344 352 3 359 353 355 359 350 339 352 37 54 15 8 8 355 351 333 316 325 306 296
242 195 238 258 274 295 279 278 293 301 303 303 302 297 285 288 291 296 306 313 324 337 347 360 357 348 343 348 351 350 349 358 21 27 0 355 347 335 336 331 313 295 270 268
223 210 222 248 260 259 277 295 300 299 296 292 294 300 292 282 293 314 316 318 332 341 351 353 346 344 343 345 342 343 344 350 9 7 352 335 323 329 336 337 341 336 308 331